Location: Burbank
(38.7788°N, 114.0429°W)
Time: 13:56:41
(UTC+00:00)

Vanguard 2 - Pass Details

Date: 13 May 2026
Orbit: 553 x 2894 km, 32.9° (Epoch: 6 June)

Event Time Altitude Azimuth Distance (km) Brightness Sun altitude
Rises 07:41:27 0° 207° (SSW) 6,176 - -32.8°
Reaches altitude 10° 07:46:01 10° 198° (SSW) 5,398 - -32.7°
Maximum altitude 07:59:46 32° 143° (SE) 4,155 - -32.4°
Exits shadow 07:59:50 32° 143° (SE) 4,155 10.8 -32.4°
Drops below altitude 10° 08:13:25 10° 89° (E) 5,403 11.9 -32.0°
Sets 08:17:54 0° 81° (E) 6,188 12.4 -31.8°
